#timestamp,LO_Frequency,Hit 
1501452015.6,286047000.6,N
1501452035.5,286046998.2,N
1501452055.3,286047000.9,N
1501452075.1,286046998.5,N
1501452095.9,286046998.2,N
1501452115.7,286047001.1,N
1501452135.5,286046998.9,N
1501452155.3,286046998.3,N
1501452175.2,286046999.2,N
1501452195.0,286046999.4,N
1501452195.9,286046999.4,N
1501452215.7,286046996.7,N
1501452235.6,286046996.9,N
1501452255.4,286046999.3,N
1501452275.2,286046999.3,N
1501452295.1,286046998.8,N
1501452296.0,286046998.8,N
1501452315.8,286046999.4,N
1501452335.6,286046998.4,N
1501452355.5,286046999.3,N
1501452375.3,286046999.4,N
1501452395.1,286046998.9,N
1501452415.8,286046996.8,N
1501452435.7,286046997.3,N
1501452455.5,286046999.6,N
1501452475.3,286046996.6,N
1501452495.2,286046999.1,N
1501452515.9,286046997.1,N
1501452535.7,286046998.9,N
1501452555.6,286046997.0,N
1501452575.4,286046996.6,N
1501452595.2,286046999.6,N
1501452615.1,286046999.1,N
1501452616.0,286046999.1,N
1501452635.8,286046996.6,N
1501452655.6,286046996.5,N
1501452675.4,286046999.4,N
1501452695.3,286046999.3,N
1501452715.1,286046998.2,N
1501452735.8,286046996.5,N
1501452755.7,286046999.2,N
1501452775.5,286046996.5,N
1501452795.3,286046999.4,N
1501452815.2,286046998.3,N
1501452835.9,286046998.4,N
1501452855.7,286046999.1,N
1501452875.6,286046997.0,N
1501452895.4,286046997.3,N
1501452915.2,286046999.4,N
1501452935.0,286046996.5,N
1501452936.0,286046996.5,N
1501452955.8,286046998.9,N
1501452975.6,286046997.0,N
1501452995.4,286046997.1,N
1501453015.3,286046999.3,N
1501453035.1,286046997.7,N
1501453055.8,286046996.9,N
1501453075.7,286046999.1,N
1501453095.5,286046997.0,N
1501453115.3,286046997.4,N
1501453135.2,286046996.8,N
1501453155.9,286046999.2,N
1501453175.7,286047001.2,N
1501453195.5,286046998.4,N
1501453215.4,286047000.8,N
1501453235.2,286047000.5,N
1501453255.0,286046999.7,N
1501453255.9,286046999.7,N
1501453275.8,286046999.8,N
1501453295.6,286047000.5,N
1501453315.4,286046998.7,N
1501453335.3,286046999.3,N
1501453355.1,286046997.1,N
1501453356.0,286046997.1,N
1501453375.8,286046996.5,N
1501453395.7,286046996.5,N
1501453415.5,286046999.5,N
1501453435.3,286046998.4,N
1501453455.2,286046997.0,N
1501453475.9,286046996.5,N
1501453495.7,286046996.5,N
1501453515.5,286046996.9,N
1501453535.4,286046997.2,N
1501453555.2,286046997.0,N
1501453575.0,286046996.7,N
1501453575.9,286046996.7,N
1501453595.8,286046999.6,N
1501453615.6,286046996.6,N
1501453635.4,286046999.3,N
1501453655.3,286046996.5,N
1501453675.1,286046998.7,N
1501453676.0,286046998.7,N
1501453695.8,286046999.4,N
1501453715.7,286046998.1,N
1501453735.5,286046999.4,N
1501453755.3,286046999.0,N
1501453775.2,286047000.3,N
1501453795.9,286046998.7,N
1501453815.7,286047000.8,N
1501453835.5,286047000.9,N
1501453855.4,286047000.4,N
1501453875.2,286047000.4,N
1501453895.0,286047001.1,N
1501453895.9,286047001.1,N
1501453915.8,286046999.7,N
1501453935.6,286047000.4,N
1501453955.4,286047000.3,N
1501453975.3,286047001.2,N
1501453995.1,286046998.6,N
1501453996.0,286046998.6,N
1501454015.8,286047001.2,N
1501454035.7,286046999.0,N
1501454055.5,286047000.9,N
1501454075.3,286047000.8,N
1501454095.1,286046998.6,N
1501454115.9,286046998.6,N
1501454135.7,286046999.2,N
1501454155.5,286046998.9,N
1501454175.4,286046999.1,N
1501454195.2,286046996.6,N
1501454215.0,286046998.6,N
1501454215.9,286046998.6,N
1501454235.8,286046998.5,N
1501454255.6,286046998.9,N
1501454275.4,286046996.8,N
1501454295.3,286046998.4,N
1501454315.1,286046998.9,N
1501454316.0,286046998.9,N
1501454335.8,286046998.5,N
1501454355.7,286046998.7,N
1501454375.5,286047000.3,N
1501454395.3,286047001.2,N
1501454415.1,286046998.1,N
1501454435.9,286047000.8,N
1501454455.7,286047000.8,N
1501454475.5,286046998.1,N
1501454495.4,286046999.1,N
1501454515.2,286047000.8,N
1501454535.0,286046998.1,N
1501454535.9,286046998.1,N
1501454555.8,286046999.4,N
1501454575.6,286047001.0,N
1501454595.4,286046998.2,N
1501454615.3,286047002.3,N
1501454635.1,286047002.2,N
1501454636.0,286047002.2,N
1501454655.8,286047002.8,N
1501454675.7,286047001.6,N
1501454695.5,286047002.6,N
1501454715.3,286047001.5,N
1501454735.1,286047003.9,N
1501454755.9,286047002.8,N
1501454775.7,286047004.4,N
1501454795.5,286047002.8,N
1501454815.4,286047002.3,N
1501454835.2,286047002.0,N
1501454855.0,286047002.7,N
1501454855.9,286047002.7,N
1501454875.8,286047002.5,N
1501454895.6,286047000.3,N
1501454915.4,286047000.4,N
1501454935.3,286047002.8,N
1501454955.1,286047000.6,N
1501454956.0,286047000.6,N
1501454975.8,286046999.9,N
1501454995.6,286047000.3,N
1501455015.5,286046999.9,N
1501455035.3,286047002.8,N
1501455055.1,286046998.8,N
1501455075.9,286047001.1,N
1501455095.7,286047000.7,N
1501455115.5,286047000.8,N
1501455135.4,286047000.6,N
1501455155.2,286047000.0,N
1501455175.0,286047000.5,N
1501455175.9,286047000.5,N
1501455195.8,286047000.0,N
1501455215.6,286047000.0,N
1501455235.4,286047000.1,N
1501455255.2,286047000.3,N
1501455275.1,286047000.0,N
1501455276.0,286047000.0,N
1501455295.8,286046999.8,N
1501455315.6,286047001.6,N
1501455335.5,286047001.4,N
1501455355.3,286047002.3,N
1501455375.1,286047001.9,N
1501455395.9,286047004.1,N
1501455415.7,286047004.2,N
1501455435.5,286047004.2,N
1501455455.4,286047003.1,N
1501455475.2,286047004.9,N
1501455495.0,286047005.4,N
1501455495.9,286047005.4,N
1501455515.8,286047006.0,N
1501455535.6,286047005.0,N
1501455555.4,286047004.9,N
1501455575.2,286047003.0,N
1501455595.1,286047002.9,N
1501455596.0,286047002.9,N
